Simultaneous Nadir Overpasses (SNOs) Predictions

Prediction of SNOs between GOES-17 and METOP-C Satellite Orbit:

Table of predicted SNOs for the next 14.0 days since TLE Epoch: 7/8/2023
Index Date Time (GOES-17) GOES-17 Lat,Lon METOP-C Lat,Lon Distance(km) Time Diff (sec)
1 07/08/2023 16:40:24 -0.01,-104.74 0.69,-107.85 355.12 80
2 07/09/2023 16:22:25 -0.01,-104.74 -0.44,-102.86 214.41 80
3 07/11/2023 04:41:24 -0.01,-104.71 -0.61,-107.45 312.16 80
4 07/12/2023 04:18:05 -0.01,-104.71 0.52,-102.46 257.17 80
5 07/13/2023 16:36:56 0.01,-104.75 0.49,-107.03 258.64 80
6 07/14/2023 16:18:56 0.00,-104.76 -0.59,-102.03 310.87 80
7 07/16/2023 04:37:55 -0.00,-104.73 -0.43,-106.62 215.87 80
8 07/17/2023 04:14:35 -0.00,-104.73 0.71,-101.63 353.40 80
9 07/18/2023 16:33:27 0.00,-104.76 0.31,-106.19 162.62 80
10 07/19/2023 16:15:26 0.00,-104.77 -0.77,-101.19 407.18 80
11 07/21/2023 04:34:26 -0.00,-104.75 -0.22,-105.79 118.56 80
